| time (UTC) | temp F | wind direction | speed MPH | gust MPH | rain 1hr in | rain 24hr in | rain mn in | humidity % | barometer mb |
| 20260509212705 | 54 | 269 | 0.0 | 2.0 | 0.00 | 0.00 | 0.00 | 79 | 1014.7 |
| 20260509212206 | 54 | 46 | 0.0 | 2.0 | 0.00 | 0.00 | 0.00 | 78 | 1014.5 |
| 20260509211706 | 54 | 269 | 1.0 | 2.0 | 0.00 | 0.00 | 0.00 | 78 | 1014.6 |
| 20260509211205 | 55 | 240 | 1.0 | 2.0 | 0.00 | 0.00 | 0.00 | 78 | 1014.7 |
| 20260509210206 | 55 | 222 | 0.0 | 2.0 | 0.00 | 0.00 | 0.00 | 77 | 1014.4 |
| 20260509205705 | 55 | 46 | 1.0 | 2.0 | 0.00 | 0.00 | 0.00 | 77 | 1014.5 |
| 20260509205221 | 55 | 89 | 1.0 | 2.0 | 0.00 | 0.00 | 0.00 | 77 | 1014.3 |
| 20260509204705 | 56 | 124 | 1.0 | 2.0 | 0.00 | 0.00 | 0.00 | 76 | 1014.4 |
| 20260509203706 | 56 | 46 | 0.0 | 1.0 | 0.00 | 0.00 | 0.00 | 76 | 1014.4 |
| 20260509203205 | 56 | 46 | 0.0 | 1.0 | 0.00 | 0.00 | 0.00 | 75 | 1014.5 |
| 20260509202705 | 57 | 253 | 0.0 | 1.0 | 0.00 | 0.00 | 0.00 | 75 | 1014.4 |
| 20260509202205 | 57 | 46 | 0.0 | 2.0 | 0.00 | 0.00 | 0.00 | 75 | 1014.4 |
| 20260509201705 | 57 | 89 | 0.0 | 2.0 | 0.00 | 0.00 | 0.00 | 74 | 1014.5 |
| 20260509201205 | 57 | 46 | 1.0 | 2.0 | 0.00 | 0.00 | 0.00 | 74 | 1014.5 |
| 20260509200706 | 58 | 63 | 1.0 | 2.0 | 0.00 | 0.00 | 0.00 | 74 | 1014.6 |
| 20260509195710 | 58 | 117 | 0.0 | 1.0 | 0.00 | 0.00 | 0.00 | 72 | 1014.6 |
| 20260509195206 | 59 | 46 | 0.0 | 2.0 | 0.00 | 0.00 | 0.00 | 72 | 1014.6 |
| 20260509194706 | 59 | 46 | 0.0 | 3.0 | 0.00 | 0.00 | 0.00 | 71 | 1014.5 |
| 20260509194205 | 59 | 63 | 1.0 | 3.0 | 0.00 | 0.00 | 0.00 | 70 | 1014.5 |
| 20260509193205 | 60 | 40 | 2.0 | 4.0 | 0.00 | 0.00 | 0.00 | 70 | 1014.4 |
| 20260509192206 | 61 | 41 | 1.0 | 3.0 | 0.00 | 0.00 | 0.00 | 68 | 1014.5 |
| 20260509191705 | 61 | 67 | 1.0 | 3.0 | 0.00 | 0.00 | 0.00 | 67 | 1014.5 |
| 20260509191205 | 61 | 53 | 1.0 | 3.0 | 0.00 | 0.00 | 0.00 | 67 | 1014.4 |
| 20260509190705 | 62 | 1 | 1.0 | 4.0 | 0.00 | 0.00 | 0.00 | 66 | 1014.3 |
| 20260509185705 | 62 | 46 | 2.0 | 4.0 | 0.00 | 0.00 | 0.00 | 66 | 1014.2 |
| 20260509185205 | 62 | 68 | 2.0 | 5.0 | 0.00 | 0.00 | 0.00 | 66 | 1014.2 |
| 20260509184705 | 62 | 46 | 2.0 | 6.0 | 0.00 | 0.00 | 0.00 | 66 | 1014.1 |
| 20260509184205 | 62 | 63 | 3.0 | 6.0 | 0.00 | 0.00 | 0.00 | 67 | 1014.1 |
| 20260509183705 | 62 | 39 | 3.0 | 6.0 | 0.00 | 0.00 | 0.00 | 67 | 1014.1 |
| 20260509183206 | 63 | 74 | 3.0 | 6.0 | 0.00 | 0.00 | 0.00 | 67 | 1014.1 |
| 20260509182705 | 63 | 46 | 3.0 | 5.0 | 0.00 | 0.00 | 0.00 | 69 | 1014.1 |
| 20260509181705 | 63 | 56 | 3.0 | 5.0 | 0.00 | 0.00 | 0.00 | 70 | 1014.1 |
| 20260509180705 | 63 | 44 | 3.0 | 6.0 | 0.00 | 0.00 | 0.00 | 69 | 1014.1 |
| 20260509180205 | 64 | 51 | 3.0 | 6.0 | 0.00 | 0.00 | 0.00 | 69 | 1014.1 |
| 20260509175705 | 64 | 53 | 3.0 | 6.0 | 0.00 | 0.00 | 0.00 | 67 | 1014.1 |
| 20260509175206 | 65 | 49 | 3.0 | 6.0 | 0.00 | 0.00 | 0.00 | 66 | 1014.1 |
| 20260509174705 | 65 | 46 | 3.0 | 5.0 | 0.00 | 0.00 | 0.00 | 64 | 1014.1 |
| 20260509174205 | 66 | 56 | 3.0 | 5.0 | 0.00 | 0.00 | 0.00 | 65 | 1014.1 |
| 20260509173705 | 66 | 63 | 3.0 | 5.0 | 0.00 | 0.00 | 0.00 | 61 | 1014.1 |
| 20260509173205 | 67 | 63 | 3.0 | 5.0 | 0.00 | 0.00 | 0.00 | 60 | 1014.1 |
| 20260509172205 | 67 | 46 | 3.0 | 5.0 | 0.00 | 0.00 | 0.00 | 61 | 1014.1 |
| 20260509171705 | 68 | 74 | 2.0 | 5.0 | 0.00 | 0.00 | 0.00 | 57 | 1014.1 |
| 20260509171205 | 68 | 63 | 2.0 | 5.0 | 0.00 | 0.00 | 0.00 | 57 | 1014.2 |
| 20260509170205 | 68 | 51 | 3.0 | 7.0 | 0.00 | 0.00 | 0.00 | 55 | 1014.1 |
| 20260509165705 | 68 | 51 | 3.0 | 7.0 | 0.00 | 0.00 | 0.00 | 56 | 1014.1 |
| 20260509165205 | 69 | 51 | 3.0 | 6.0 | 0.00 | 0.00 | 0.00 | 55 | 1014.1 |
| 20260509164705 | 69 | 60 | 3.0 | 6.0 | 0.00 | 0.00 | 0.00 | 57 | 1014.2 |
| 20260509164205 | 69 | 37 | 3.0 | 6.0 | 0.00 | 0.00 | 0.00 | 56 | 1014.2 |
| 20260509162705 | 70 | 62 | 3.0 | 7.0 | 0.00 | 0.00 | 0.00 | 55 | 1014.3 |
| 20260509162209 | 69 | 336 | 3.0 | 7.0 | 0.00 | 0.00 | 0.00 | 55 | 1014.3 |
| 20260509161705 | 69 | 75 | 3.0 | 5.0 | 0.00 | 0.00 | 0.00 | 54 | 1014.4 |
| 20260509161223 | 70 | 68 | 3.0 | 5.0 | 0.00 | 0.00 | 0.00 | 53 | 1014.5 |
| 20260509160706 | 69 | 51 | 2.0 | 5.0 | 0.00 | 0.00 | 0.00 | 54 | 1014.5 |
| 20260509160205 | 70 | 89 | 2.0 | 6.0 | 0.00 | 0.00 | 0.00 | 54 | 1014.5 |
| 20260509155705 | 70 | 11 | 3.0 | 7.0 | 0.00 | 0.00 | 0.00 | 50 | 1014.6 |
| 20260509155205 | 71 | 63 | 3.0 | 7.0 | 0.00 | 0.00 | 0.00 | 53 | 1014.6 |
| 20260509154705 | 71 | 84 | 3.0 | 7.0 | 0.00 | 0.00 | 0.00 | 52 | 1014.8 |
| 20260509154205 | 71 | 108 | 3.0 | 7.0 | 0.00 | 0.00 | 0.00 | 51 | 1014.8 |
| 20260509153706 | 71 | 89 | 3.0 | 7.0 | 0.00 | 0.00 | 0.00 | 55 | 1014.8 |
| 20260509152705 | 71 | 58 | 4.0 | 9.0 | 0.00 | 0.00 | 0.00 | 55 | 1014.9 |
| 20260509151206 | 69 | 348 | 3.0 | 9.0 | 0.00 | 0.00 | 0.00 | 59 | 1015.0 |
| 20260509150705 | 70 | 135 | 3.0 | 7.0 | 0.00 | 0.00 | 0.00 | 51 | 1015.0 |
| 20260509150205 | 71 | 351 | 3.0 | 9.0 | 0.00 | 0.00 | 0.00 | 51 | 1015.0 |
| 20260509145205 | 71 | 331 | 4.0 | 9.0 | 0.00 | 0.00 | 0.00 | 55 | 1015.0 |
| 20260509144706 | 71 | 75 | 4.0 | 9.0 | 0.00 | 0.00 | 0.00 | 54 | 1015.1 |
| 20260509144206 | 71 | 302 | 3.0 | 9.0 | 0.00 | 0.00 | 0.00 | 53 | 1015.2 |
| 20260509142705 | 71 | 35 | 3.0 | 9.0 | 0.00 | 0.00 | 0.00 | 53 | 1015.2 |
| 20260509142205 | 71 | 98 | 4.0 | 8.0 | 0.00 | 0.00 | 0.00 | 52 | 1015.2 |
| 20260509140706 | 71 | 63 | 3.0 | 8.0 | 0.00 | 0.00 | 0.00 | 55 | 1015.4 |
| 20260509140205 | 70 | 28 | 4.0 | 10.0 | 0.00 | 0.00 | 0.00 | 55 | 1015.4 |
| 20260509135705 | 70 | 98 | 4.0 | 10.0 | 0.00 | 0.00 | 0.00 | 54 | 1015.5 |
| 20260509135205 | 70 | 18 | 4.0 | 10.0 | 0.00 | 0.00 | 0.00 | 57 | 1015.6 |
| 20260509134705 | 70 | 89 | 4.0 | 9.0 | 0.00 | 0.00 | 0.00 | 56 | 1015.6 |
| 20260509133706 | 71 | 199 | 4.0 | 10.0 | 0.00 | 0.00 | 0.00 | 54 | 1015.7 |
| 20260509133205 | 71 | 171 | 4.0 | 10.0 | 0.00 | 0.00 | 0.00 | 56 | 1015.7 |
| 20260509132705 | 70 | 39 | 4.0 | 10.0 | 0.00 | 0.00 | 0.00 | 58 | 1015.8 |
| 20260509132206 | 69 | 86 | 4.0 | 10.0 | 0.00 | 0.00 | 0.00 | 58 | 1015.9 |
| 20260509131205 | 70 | 98 | 3.0 | 7.0 | 0.00 | 0.00 | 0.00 | 57 | 1016.1 |
| 20260509130705 | 69 | 20 | 3.0 | 8.0 | 0.00 | 0.00 | 0.00 | 55 | 1016.2 |
| 20260509130205 | 69 | 60 | 3.0 | 11.0 | 0.00 | 0.00 | 0.00 | 57 | 1016.2 |
| 20260509125708 | 68 | 314 | 4.0 | 11.0 | 0.00 | 0.00 | 0.00 | 51 | 1016.3 |
| 20260509125206 | 69 | 105 | 4.0 | 11.0 | 0.00 | 0.00 | 0.00 | 54 | 1016.4 |
| 20260509124705 | 67 | 108 | 2.0 | 6.0 | 0.00 | 0.00 | 0.00 | 56 | 1016.4 |
| 20260509124206 | 68 | 229 | 2.0 | 7.0 | 0.00 | 0.00 | 0.00 | 54 | 1016.4 |
| 20260509123705 | 69 | 60 | 3.0 | 8.0 | 0.00 | 0.00 | 0.00 | 52 | 1016.5 |
| 20260509123205 | 69 | 49 | 3.0 | 13.0 | 0.00 | 0.00 | 0.00 | 57 | 1016.5 |
| 20260509122705 | 69 | 62 | 4.0 | 13.0 | 0.00 | 0.00 | 0.00 | 54 | 1016.6 |
| 20260509122206 | 69 | 169 | 5.0 | 9.0 | 0.00 | 0.00 | 0.00 | 58 | 1016.6 |
| 20260509121705 | 68 | 269 | 5.0 | 9.0 | 0.00 | 0.00 | 0.00 | 59 | 1016.6 |
| 20260509121231 | 69 | 41 | 4.0 | 10.0 | 0.00 | 0.00 | 0.00 | 57 | 1016.8 |
| 20260509120205 | 68 | 56 | 4.0 | 10.0 | 0.00 | 0.00 | 0.00 | 53 | 1017.0 |
| 20260509115210 | 67 | 119 | 4.0 | 9.0 | 0.00 | 0.00 | 0.00 | 62 | 1017.0 |
| 20260509114705 | 67 | 33 | 4.0 | 9.0 | 0.00 | 0.00 | 0.00 | 60 | 1017.0 |
| 20260509114206 | 66 | 331 | 4.0 | 9.0 | 0.00 | 0.00 | 0.00 | 62 | 1017.1 |
| 20260509112705 | 66 | 58 | 4.0 | 6.0 | 0.00 | 0.00 | 0.00 | 64 | 1017.2 |
| 20260509112209 | 66 | 76 | 3.0 | 10.0 | 0.00 | 0.00 | 0.00 | 59 | 1017.3 |
| 20260509111706 | 66 | 65 | 3.0 | 10.0 | 0.00 | 0.00 | 0.00 | 60 | 1017.4 |
| 20260509111205 | 67 | 102 | 5.0 | 10.0 | 0.00 | 0.00 | 0.00 | 57 | 1017.4 |
| 20260509110705 | 67 | 15 | 4.0 | 12.0 | 0.00 | 0.00 | 0.00 | 61 | 1017.4 |
| 20260509110206 | 66 | 88 | 4.0 | 12.0 | 0.00 | 0.00 | 0.00 | 58 | 1017.6 |
| 20260509105705 | 66 | 129 | 4.0 | 7.0 | 0.00 | 0.00 | 0.00 | 61 | 1017.6 |
| 20260509105205 | 65 | 201 | 3.0 | 7.0 | 0.00 | 0.00 | 0.00 | 65 | 1017.6 |
| 20260509104705 | 65 | 93 | 3.0 | 7.0 | 0.00 | 0.00 | 0.00 | 65 | 1017.7 |
| 20260509104205 | 65 | 1 | 3.0 | 7.0 | 0.00 | 0.00 | 0.00 | 64 | 1017.8 |
| 20260509103705 | 64 | 327 | 3.0 | 7.0 | 0.00 | 0.00 | 0.00 | 64 | 1017.8 |
| 20260509103205 | 64 | 1 | 3.0 | 7.0 | 0.00 | 0.00 | 0.00 | 63 | 1017.9 |
| 20260509102705 | 63 | 68 | 3.0 | 7.0 | 0.00 | 0.00 | 0.00 | 65 | 1018.0 |
| 20260509102205 | 63 | 35 | 4.0 | 8.0 | 0.00 | 0.00 | 0.00 | 64 | 1017.9 |
| 20260509101705 | 63 | 53 | 4.0 | 8.0 | 0.00 | 0.00 | 0.00 | 65 | 1017.9 |
| 20260509101213 | 63 | 14 | 4.0 | 10.0 | 0.00 | 0.00 | 0.00 | 64 | 1017.9 |
| 20260509100705 | 63 | 41 | 4.0 | 10.0 | 0.00 | 0.00 | 0.00 | 66 | 1018.0 |
| 20260509100209 | 63 | 96 | 4.0 | 10.0 | 0.00 | 0.00 | 0.00 | 68 | 1017.9 |
| 20260509095705 | 62 | 65 | 4.0 | 8.0 | 0.00 | 0.00 | 0.00 | 68 | 1017.9 |
| 20260509094705 | 62 | 57 | 3.0 | 9.0 | 0.00 | 0.00 | 0.00 | 67 | 1018.0 |
| 20260509094206 | 61 | 193 | 3.0 | 9.0 | 0.00 | 0.00 | 0.00 | 67 | 1018.0 |
| 20260509093705 | 61 | 109 | 3.0 | 7.0 | 0.00 | 0.00 | 0.00 | 71 | 1018.0 |
| 20260509093205 | 61 | 269 | 3.0 | 7.0 | 0.00 | 0.00 | 0.00 | 70 | 1017.9 |
| 20260509092732 | 61 | 286 | 3.0 | 7.0 | 0.00 | 0.00 | 0.00 | 74 | 1018.0 |
| 20260509091705 | 60 | 39 | 3.0 | 7.0 | 0.00 | 0.00 | 0.00 | 73 | 1018.1 |
| 20260509091205 | 59 | 109 | 2.0 | 7.0 | 0.00 | 0.00 | 0.00 | 76 | 1018.1 |
| 20260509090706 | 58 | 89 | 2.0 | 7.0 | 0.00 | 0.00 | 0.00 | 73 | 1018.2 |
| 20260509090205 | 58 | 68 | 3.0 | 7.0 | 0.00 | 0.00 | 0.00 | 75 | 1018.2 |
| 20260509085705 | 58 | 140 | 3.0 | 7.0 | 0.00 | 0.00 | 0.00 | 76 | 1018.3 |
| 20260509085206 | 58 | 96 | 3.0 | 8.0 | 0.00 | 0.00 | 0.00 | 78 | 1018.4 |
| 20260509084705 | 57 | 13 | 4.0 | 8.0 | 0.00 | 0.00 | 0.00 | 76 | 1018.4 |
| 20260509084205 | 57 | 11 | 4.0 | 8.0 | 0.00 | 0.00 | 0.00 | 79 | 1018.4 |
| 20260509083705 | 56 | 44 | 3.0 | 7.0 | 0.00 | 0.00 | 0.00 | 79 | 1018.3 |
| 20260509083205 | 56 | 348 | 2.0 | 6.0 | 0.00 | 0.00 | 0.00 | 79 | 1018.3 |
| 20260509082705 | 55 | 136 | 2.0 | 6.0 | 0.00 | 0.00 | 0.00 | 79 | 1018.4 |
| 20260509082205 | 55 | 83 | 3.0 | 6.0 | 0.00 | 0.00 | 0.00 | 79 | 1018.5 |
| 20260509081729 | 55 | 46 | 3.0 | 7.0 | 0.00 | 0.00 | 0.00 | 80 | 1018.5 |
| 20260509081206 | 55 | 96 | 4.0 | 7.0 | 0.00 | 0.00 | 0.00 | 81 | 1018.5 |
| 20260509080705 | 54 | 63 | 3.0 | 6.0 | 0.00 | 0.00 | 0.00 | 81 | 1018.5 |
| 20260509080205 | 54 | 42 | 3.0 | 6.0 | 0.00 | 0.00 | 0.00 | 82 | 1018.6 |
| 20260509075206 | 52 | 60 | 3.0 | 5.0 | 0.00 | 0.00 | 0.00 | 85 | 1018.7 |
| 20260509074205 | 52 | 35 | 3.0 | 8.0 | 0.00 | 0.00 | 0.00 | 86 | 1018.6 |
| 20260509073708 | 51 | 126 | 4.0 | 8.0 | 0.00 | 0.00 | 0.00 | 86 | 1018.6 |
| 20260509073205 | 51 | 108 | 3.0 | 8.0 | 0.00 | 0.00 | 0.00 | 86 | 1018.6 |
| 20260509072206 | 50 | 117 | 3.0 | 6.0 | 0.00 | 0.00 | 0.00 | 87 | 1018.6 |
| 20260509071705 | 50 | 89 | 2.0 | 5.0 | 0.00 | 0.00 | 0.00 | 89 | 1018.6 |
| 20260509071205 | 49 | 110 | 2.0 | 6.0 | 0.00 | 0.00 | 0.00 | 88 | 1018.6 |
| 20260509070706 | 49 | 344 | 3.0 | 6.0 | 0.00 | 0.00 | 0.00 | 89 | 1018.6 |
| 20260509065705 | 49 | 89 | 2.0 | 5.0 | 0.00 | 0.00 | 0.00 | 91 | 1018.6 |
| 20260509065206 | 48 | 51 | 3.0 | 6.0 | 0.00 | 0.00 | 0.00 | 92 | 1018.6 |
| 20260509064206 | 47 | 35 | 3.0 | 6.0 | 0.00 | 0.00 | 0.00 | 92 | 1018.6 |
| 20260509063705 | 47 | 58 | 2.0 | 6.0 | 0.00 | 0.00 | 0.00 | 92 | 1018.6 |
| 20260509063205 | 46 | 81 | 3.0 | 5.0 | 0.00 | 0.00 | 0.00 | 92 | 1018.6 |
| 20260509062705 | 46 | 56 | 2.0 | 6.0 | 0.00 | 0.00 | 0.00 | 92 | 1018.6 |
| 20260509062206 | 46 | 76 | 3.0 | 6.0 | 0.00 | 0.00 | 0.00 | 92 | 1018.6 |
| 20260509061705 | 46 | 354 | 3.0 | 5.0 | 0.00 | 0.00 | 0.00 | 91 | 1018.5 |
| 20260509061206 | 46 | 25 | 2.0 | 4.0 | 0.00 | 0.00 | 0.00 | 91 | 1018.6 |
| 20260509060704 | 45 | 40 | 2.0 | 4.0 | 0.00 | 0.00 | 0.00 | 91 | 1018.6 |
| 20260509055705 | 45 | 56 | 3.0 | 6.0 | 0.00 | 0.00 | 0.00 | 91 | 1018.5 |
| 20260509055206 | 45 | 79 | 3.0 | 6.0 | 0.00 | 0.00 | 0.00 | 91 | 1018.5 |
| 20260509054708 | 45 | 49 | 3.0 | 7.0 | 0.00 | 0.00 | 0.00 | 92 | 1018.4 |
| 20260509054205 | 45 | 35 | 3.0 | 7.0 | 0.00 | 0.00 | 0.00 | 91 | 1018.5 |
| 20260509053705 | 45 | 65 | 3.0 | 7.0 | 0.00 | 0.00 | 0.00 | 91 | 1018.5 |
| 20260509053205 | 44 | 63 | 2.0 | 5.0 | 0.00 | 0.00 | 0.00 | 91 | 1018.5 |
| 20260509052705 | 44 | 53 | 2.0 | 5.0 | 0.00 | 0.00 | 0.00 | 91 | 1018.5 |
| 20260509052205 | 44 | 20 | 2.0 | 5.0 | 0.00 | 0.00 | 0.00 | 91 | 1018.5 |
| 20260509051706 | 44 | 30 | 2.0 | 5.0 | 0.00 | 0.00 | 0.00 | 91 | 1018.5 |
| 20260509051206 | 44 | 28 | 2.0 | 4.0 | 0.00 | 0.00 | 0.00 | 91 | 1018.4 |
| 20260509050705 | 43 | 28 | 2.0 | 4.0 | 0.00 | 0.00 | 0.00 | 91 | 1018.3 |
| 20260509045705 | 43 | 1 | 1.0 | 3.0 | 0.00 | 0.00 | 0.00 | 91 | 1018.3 |
| 20260509045206 | 43 | 28 | 1.0 | 3.0 | 0.00 | 0.00 | 0.00 | 91 | 1018.3 |
| 20260509044705 | 43 | 336 | 1.0 | 2.0 | 0.00 | 0.00 | 0.00 | 91 | 1018.3 |
| 20260509044206 | 43 | 1 | 0.0 | 3.0 | 0.00 | 0.00 | 0.00 | 91 | 1018.2 |
| 20260509043705 | 43 | 178 | 1.0 | 3.0 | 0.00 | 0.00 | 0.00 | 91 | 1018.1 |
| 20260509043205 | 42 | 178 | 2.0 | 3.0 | 0.00 | 0.00 | 0.00 | 90 | 1018.1 |
| 20260509042705 | 42 | 101 | 2.0 | 4.0 | 0.00 | 0.00 | 0.00 | 90 | 1018.1 |
| 20260509042205 | 42 | 20 | 1.0 | 4.0 | 0.00 | 0.00 | 0.00 | 90 | 1018.1 |
| 20260509041705 | 42 | 46 | 2.0 | 4.0 | 0.00 | 0.00 | 0.00 | 90 | 1018.0 |
| 20260509041205 | 42 | 39 | 2.0 | 4.0 | 0.00 | 0.00 | 0.00 | 90 | 1017.9 |
| 20260509040706 | 42 | 60 | 1.0 | 3.0 | 0.00 | 0.00 | 0.00 | 90 | 1018.0 |
| 20260509035705 | 42 | 28 | 1.0 | 3.0 | 0.00 | 0.00 | 0.00 | 90 | 1018.0 |
| 20260509035214 | 42 | 28 | 1.0 | 2.0 | 0.00 | 0.00 | 0.00 | 90 | 1018.0 |
| 20260509034705 | 42 | 35 | 1.0 | 3.0 | 0.00 | 0.00 | 0.00 | 90 | 1017.9 |
| 20260509034206 | 42 | 46 | 1.0 | 3.0 | 0.00 | 0.00 | 0.00 | 90 | 1018.0 |
| 20260509033704 | 42 | 1 | 1.0 | 3.0 | 0.00 | 0.00 | 0.00 | 90 | 1018.0 |
| 20260509033226 | 42 | 23 | 1.0 | 2.0 | 0.00 | 0.00 | 0.00 | 90 | 1018.0 |
| 20260509032205 | 42 | 314 | 1.0 | 4.0 | 0.00 | 0.00 | 0.00 | 90 | 1018.0 |
| 20260509031706 | 42 | 1 | 1.0 | 4.0 | 0.00 | 0.00 | 0.00 | 90 | 1018.0 |
| 20260509030705 | 42 | 35 | 1.0 | 2.0 | 0.00 | 0.00 | 0.00 | 89 | 1018.0 |
| 20260509030206 | 42 | 160 | 1.0 | 2.0 | 0.00 | 0.00 | 0.00 | 89 | 1018.1 |
| 20260509025206 | 42 | 63 | 2.0 | 3.0 | 0.00 | 0.00 | 0.00 | 89 | 1018.2 |
| 20260509024705 | 42 | 56 | 1.0 | 2.0 | 0.00 | 0.00 | 0.00 | 89 | 1018.1 |
| 20260509024206 | 43 | 1 | 0.0 | 2.0 | 0.00 | 0.00 | 0.00 | 89 | 1018.2 |
| 20260509023705 | 43 | 1 | 1.0 | 2.0 | 0.00 | 0.00 | 0.00 | 89 | 1018.1 |
| 20260509022205 | 43 | 76 | 1.0 | 3.0 | 0.00 | 0.00 | 0.00 | 89 | 1018.2 |
| 20260509021705 | 43 | 121 | 2.0 | 3.0 | 0.00 | 0.00 | 0.00 | 89 | 1018.2 |
| 20260509020705 | 43 | 28 | 2.0 | 3.0 | 0.00 | 0.00 | 0.00 | 89 | 1018.1 |
| 20260509020205 | 44 | 21 | 2.0 | 2.0 | 0.00 | 0.00 | 0.00 | 89 | 1018.0 |
| 20260509015705 | 44 | 63 | 2.0 | 2.0 | 0.00 | 0.00 | 0.00 | 89 | 1018.1 |
| 20260509015206 | 44 | 23 | 2.0 | 2.0 | 0.00 | 0.00 | 0.00 | 89 | 1018.1 |
| 20260509014705 | 44 | 32 | 1.0 | 2.0 | 0.00 | 0.00 | 0.00 | 88 | 1018.0 |
| 20260509014206 | 44 | 28 | 1.0 | 3.0 | 0.00 | 0.00 | 0.00 | 88 | 1018.1 |
| 20260509013205 | 44 | 63 | 1.0 | 4.0 | 0.00 | 0.00 | 0.00 | 88 | 1018.2 |
| 20260509012705 | 44 | 28 | 1.0 | 4.0 | 0.00 | 0.00 | 0.00 | 88 | 1018.2 |
| 20260509012205 | 44 | 178 | 2.0 | 4.0 | 0.00 | 0.00 | 0.00 | 88 | 1018.2 |
| 20260509011705 | 44 | 35 | 2.0 | 3.0 | 0.00 | 0.00 | 0.00 | 88 | 1018.2 |
| 20260509010205 | 44 | 56 | 1.0 | 3.0 | 0.00 | 0.00 | 0.00 | 88 | 1018.1 |
| 20260509005705 | 45 | 46 | 1.0 | 3.0 | 0.00 | 0.00 | 0.00 | 88 | 1018.0 |
| 20260509005206 | 45 | 60 | 2.0 | 4.0 | 0.00 | 0.00 | 0.00 | 88 | 1018.1 |
| 20260509004706 | 45 | 28 | 2.0 | 4.0 | 0.00 | 0.00 | 0.00 | 88 | 1018.1 |
| 20260509004206 | 45 | 50 | 1.0 | 4.0 | 0.00 | 0.00 | 0.00 | 88 | 1018.0 |
| 20260509003705 | 45 | 46 | 1.0 | 4.0 | 0.00 | 0.00 | 0.00 | 87 | 1018.0 |
| 20260509003205 | 45 | 51 | 2.0 | 4.0 | 0.00 | 0.00 | 0.00 | 87 | 1018.0 |
| 20260509002705 | 45 | 46 | 2.0 | 3.0 | 0.00 | 0.00 | 0.00 | 87 | 1017.9 |
| 20260509002206 | 45 | 46 | 2.0 | 3.0 | 0.00 | 0.00 | 0.00 | 87 | 1018.1 |
| 20260509001705 | 45 | 35 | 2.0 | 3.0 | 0.00 | 0.00 | 0.00 | 87 | 1018.1 |
| 20260509001205 | 45 | 37 | 1.0 | 3.0 | 0.00 | 0.00 | 0.00 | 87 | 1018.1 |
| 20260509000705 | 45 | 35 | 1.0 | 2.0 | 0.00 | 0.00 | 0.00 | 87 | 1018.1 |
| 20260509000205 | 45 | 46 | 1.0 | 2.0 | 0.00 | 0.00 | 0.00 | 86 | 1018.1 |
| 20260508235705 | 45 | 269 | 0.0 | 2.0 | 0.00 | 0.00 | 0.00 | 86 | 1018.2 |
| 20260508235206 | 45 | 269 | 0.0 | 2.0 | 0.00 | 0.00 | 0.00 | 86 | 1018.2 |
| 20260508234706 | 45 | 46 | 1.0 | 2.0 | 0.00 | 0.00 | 0.00 | 86 | 1018.2 |
| 20260508234206 | 45 | 18 | 1.0 | 2.0 | 0.00 | 0.00 | 0.00 | 86 | 1018.2 |
| 20260508233706 | 45 | 28 | 1.0 | 2.0 | 0.00 | 0.00 | 0.00 | 86 | 1018.2 |
| 20260508233205 | 45 | 23 | 0.0 | 2.0 | 0.00 | 0.00 | 0.00 | 86 | 1018.2 |
| 20260508232705 | 45 | 46 | 0.0 | 3.0 | 0.00 | 0.00 | 0.00 | 85 | 1018.2 |
| 20260508231705 | 45 | 35 | 1.0 | 3.0 | 0.00 | 0.00 | 0.00 | 85 | 1018.2 |
| 20260508231205 | 45 | 23 | 1.0 | 2.0 | 0.00 | 0.00 | 0.00 | 85 | 1018.2 |
| 20260508230206 | 46 | 108 | 0.0 | 3.0 | 0.00 | 0.00 | 0.00 | 85 | 1018.3 |
| 20260508225705 | 46 | 178 | 1.0 | 3.0 | 0.00 | 0.00 | 0.00 | 85 | 1018.4 |
| 20260508225206 | 46 | 340 | 2.0 | 3.0 | 0.00 | 0.00 | 0.00 | 85 | 1018.4 |
| 20260508224705 | 46 | 11 | 2.0 | 3.0 | 0.00 | 0.00 | 0.00 | 85 | 1018.3 |
| 20260508224205 | 46 | 352 | 1.0 | 2.0 | 0.00 | 0.00 | 0.00 | 84 | 1018.3 |
| 20260508223705 | 46 | 344 | 1.0 | 2.0 | 0.00 | 0.00 | 0.00 | 84 | 1018.2 |
| 20260508223231 | 46 | 46 | 0.0 | 2.0 | 0.00 | 0.00 | 0.00 | 84 | 1018.2 |
| 20260508222705 | 47 | 314 | 0.0 | 3.0 | 0.00 | 0.00 | 0.00 | 84 | 1018.1 |
| 20260508222205 | 47 | 46 | 1.0 | 3.0 | 0.00 | 0.00 | 0.00 | 83 | 1018.1 |
| 20260508221705 | 47 | 89 | 1.0 | 3.0 | 0.00 | 0.00 | 0.00 | 83 | 1018.1 |
| 20260508220705 | 47 | 28 | 0.0 | 2.0 | 0.00 | 0.00 | 0.00 | 82 | 1018.1 |
| 20260508220205 | 47 | 205 | 0.0 | 2.0 | 0.00 | 0.00 | 0.00 | 82 | 1018.1 |
| 20260508215705 | 47 | 269 | 0.0 | 2.0 | 0.00 | 0.00 | 0.00 | 82 | 1018.1 |
| 20260508215206 | 47 | 286 | 0.0 | 1.0 | 0.00 | 0.00 | 0.00 | 81 | 1018.0 |
| 20260508214706 | 48 | 46 | 0.0 | 4.0 | 0.00 | 0.00 | 0.00 | 81 | 1018.0 |
| 20260508214206 | 48 | 145 | 1.0 | 4.0 | 0.00 | 0.00 | 0.00 | 81 | 1018.1 |
| 20260508213705 | 48 | 46 | 1.0 | 4.0 | 0.00 | 0.00 | 0.00 | 81 | 1018.1 |